Regional Weather Roundup
Issued by NWS

Home | Current Version | Previous Version | Text Only | Print | Product List | Glossary Off
Versions: 1 2 3 4 5 6 7 8 9 10 11 12 13 14 15 16 17 18 19 20 21 22 23 24 25 26 27 28 29 30 31 32 33 34 35 36 37 38 39 40 41 42 43 44 45 46 47 48 49 50

000
ASUS43 KBIS 241210
RWRND
NORTH DAKOTA REGIONAL WEATHER ROUNDUP
NATIONAL WEATHER SERVICE EASTERN NORTH DAKOTA/GRAND FORKS ND
700 AM CDT THU MAY 24 2018

  NOTE: "FAIR" INDICATES FEW OR NO CLOUDS BELOW 12,000 FEET WITH NO
  SIGNIFICANT WEATHER AND/OR OBSTRUCTIONS TO VISIBILITY.

NDZ001>003-009>011-017-241300-
...NORTHWEST NORTH DAKOTA...

CITY           SKY/WX    TMP DP  RH WIND       PRES   REMARKS
WILLISTON      FAIR      57  55  93 CALM      29.79S
6HR MIN TEMP:  54; 6HR MAX TEMP:  62;

MINOT          FAIR      64  62  93 SE6       29.77S FOG
MINOT AFB      FAIR      61  61 100 SE6       29.75S
6HR MIN TEMP:  58; 6HR MAX TEMP:  66;

$$

NDZ018>021-031>035-040>046-241300-
...SOUTHWEST NORTH DAKOTA...

CITY           SKY/WX    TMP DP  RH WIND       PRES   REMARKS
BISMARCK       FAIR      65  58  78 SW5       29.83R
DICKINSON      FAIR      56  51  84 SW9       29.81S
GARRISON         N/A     60  60 100 S6        29.78F
HETTINGER      FAIR      53  48  83 S6        29.87R
$$

NDZ004>008-012>016-024-026-027-054-241300-
...NORTHEAST NORTH DAKOTA...

CITY           SKY/WX    TMP DP  RH WIND       PRES   REMARKS
GRAND FORKS    PTSUNNY   66  64  93 SE13      29.81F
GRAND FORKS AF FAIR      63  63 100 SE8       29.81F
DEVILS LAKE    FAIR      66  63  88 S17       29.82R FOG
$$

NDZ022-023-025-028>030-036>039-047>053-241300-
...SOUTHEAST NORTH DAKOTA...

CITY           SKY/WX    TMP DP  RH WIND       PRES   REMARKS
JAMESTOWN      FAIR      65  60  84 S9        29.83R
FARGO          FAIR      71  64  78 S14G24    29.84F
WAHPETON       FAIR      68  61  77 SE12      29.87F
$$




USA.gov is the U.S. government's official web portal to all federal, state and local government web resources and services.